CDT,Max TemperatureF,Mean TemperatureF,Min TemperatureF,Max Dew PointF,MeanDew PointF,Min DewpointF,Max Humidity, Mean Humidity, Min Humidity, Max Sea Level PressureIn, Mean Sea Level PressureIn, Min Sea Level PressureIn, Max VisibilityMiles, Mean VisibilityMiles, Min VisibilityMiles, Max Wind SpeedMPH, Mean Wind SpeedMPH, Max Gust SpeedMPH,PrecipitationIn, CloudCover, Events, WindDirDegrees
2013-5-1,51,44,35,48,40,34,94,82,76,30.37,30.17,29.93,10,10,4,30,17,38,0.01,7,Rain-Snow,1
2013-5-2,35,34,32,34,31,30,100,93,87,30.43,30.37,30.32,10,2,0,29,23,39,0.51,8,Rain-Snow,359
2013-5-3,33,32,32,32,31,28,93,92,87,30.33,30.13,30.00,10,4,0,23,18,30,0.36,8,Rain-Snow,8
2013-5-4,55,44,33,52,40,32,100,90,81,30.09,30.02,29.97,10,8,2,21,15,24,0.50,6,Rain,19
2013-5-5,66,52,39,57,47,37,94,83,64,30.11,30.08,30.04,10,10,10,15,10,18,0.00,2,,352
2013-5-6,71,58,44,54,48,43,94,70,41,30.10,30.06,30.02,10,9,5,10,7,15,0.00,1,,345
2013-5-7,75,62,48,52,47,43,93,57,33,30.09,30.04,29.99,10,10,10,8,4,14,0.00,1,,7
2013-5-8,77,64,51,55,50,46,82,62,34,30.03,29.99,29.95,10,10,7,20,7,25,0.00,3,,151
2013-5-9,62,56,50,59,55,48,94,93,82,29.96,29.91,29.85,10,6,1,21,10,28,0.49,8,Rain,36
2013-5-10,62,52,42,50,46,41,100,77,52,30.04,29.99,29.95,10,10,5,20,13,26,0.00,5,,353
2013-5-11,53,46,39,46,31,21,87,55,30,30.16,30.05,29.91,10,10,10,31,18,44,0.00,2,,315
2013-5-12,57,44,32,28,26,23,81,49,27,30.22,30.17,30.10,10,10,10,18,10,24,0.00,0,,323
2013-5-13,71,53,35,46,34,23,75,48,30,30.14,30.02,29.79,10,10,10,22,7,29,0.00,1,Rain,178
2013-5-14,96,74,51,57,50,39,88,47,20,29.79,29.68,29.51,10,10,3,28,13,58,0.00,1,Rain,222
2013-5-15,75,65,55,50,44,37,72,45,29,29.94,29.87,29.71,10,10,9,18,10,22,0.00,2,,360
2013-5-16,84,67,50,59,47,41,83,49,25,29.95,29.89,29.84,10,10,5,16,5,24,0.02,1,Rain,155
2013-5-17,78,66,55,64,57,50,88,74,51,29.99,29.94,29.86,10,10,6,20,12,26,0.07,5,Rain,93
2013-5-18,82,70,57,63,59,54,88,68,45,30.00,29.93,29.83,10,9,4,21,11,24,0.00,2,,144
2013-5-19,82,73,62,68,64,61,94,78,54,29.86,29.72,29.57,10,8,1,32,15,45,1.18,3,Rain,149
2013-5-20,73,66,60,63,59,55,100,78,60,29.70,29.62,29.56,10,10,3,25,13,34,0.30,6,Rain,180
2013-5-21,66,62,59,57,55,50,94,79,56,29.68,29.63,29.54,10,10,9,17,8,25,0.00,7,,214
2013-5-22,64,60,55,57,54,52,94,85,68,29.85,29.71,29.64,10,9,3,20,5,23,0.07,8,Rain,321
2013-5-23,62,56,50,50,44,34,94,66,34,30.31,30.13,29.87,10,10,9,20,15,26,0.00,2,,22
2013-5-24,66,54,42,48,41,36,82,61,37,30.40,30.32,30.22,10,10,5,18,9,23,0.22,2,Rain,117
2013-5-25,53,52,50,48,47,46,94,82,77,30.29,30.24,30.21,10,9,2,24,13,31,0.21,8,Rain,129
2013-5-26,55,50,46,52,47,43,94,88,82,30.22,30.13,30.04,10,8,2,32,15,41,0.87,7,Rain,109
2013-5-27,60,56,53,59,56,52,100,96,88,30.05,29.88,29.80,4,2,0,26,14,38,0.47,8,Fog-Rain,104
2013-5-28,73,64,55,64,59,54,100,89,69,29.80,29.73,29.68,10,6,0,15,9,16,0.02,6,Fog-Rain,65
2013-5-29,77,68,59,68,62,59,100,90,73,29.83,29.78,29.70,10,6,0,18,9,43,1.48,6,Fog-Rain,142
2013-5-30,73,68,62,64,63,59,94,81,69,29.73,29.66,29.57,10,10,10,28,18,39,0.00,5,,165
2013-5-31,75,68,60,64,61,59,94,80,64,29.68,29.65,29.61,10,10,8,28,17,34,0.00,5,Rain,180